Year,Month,Day,Hour,Minute,Value (Times are PST for temperature in C)
2013,11,26,00,00,2.80
2013,11,26,00,01,2.80
2013,11,26,00,02,2.80
2013,11,26,00,03,2.80
2013,11,26,00,04,2.70
2013,11,26,00,05,2.70
2013,11,26,00,06,2.70
2013,11,26,00,07,2.70
2013,11,26,00,08,2.70
2013,11,26,00,09,2.70
2013,11,26,00,10,2.70
2013,11,26,00,11,2.70
2013,11,26,00,12,2.60
2013,11,26,00,13,2.60
2013,11,26,00,14,2.70
2013,11,26,00,15,2.70
2013,11,26,00,16,2.70
2013,11,26,00,17,2.70
2013,11,26,00,18,2.70
2013,11,26,00,19,2.70
2013,11,26,00,20,2.70
2013,11,26,00,21,2.70
2013,11,26,00,22,2.70
2013,11,26,00,23,2.70
2013,11,26,00,24,2.70
2013,11,26,00,25,2.70
2013,11,26,00,26,2.70
2013,11,26,00,27,2.70
2013,11,26,00,28,2.70
2013,11,26,00,29,2.70
2013,11,26,00,30,2.70
2013,11,26,00,31,2.70
2013,11,26,00,32,2.70
2013,11,26,00,33,2.70
2013,11,26,00,34,2.70
2013,11,26,00,35,2.70
2013,11,26,00,36,2.80
2013,11,26,00,37,2.80
2013,11,26,00,38,2.80
2013,11,26,00,39,2.80
2013,11,26,00,40,2.80
2013,11,26,00,41,2.80
2013,11,26,00,42,2.80
2013,11,26,00,43,2.80
2013,11,26,00,44,2.90
2013,11,26,00,45,2.90
2013,11,26,00,46,2.90
2013,11,26,00,47,2.90
2013,11,26,00,48,2.90
2013,11,26,00,49,2.90
2013,11,26,00,50,2.90
2013,11,26,00,51,2.90
2013,11,26,00,52,2.80
2013,11,26,00,53,2.80
2013,11,26,00,54,2.80
2013,11,26,00,55,2.80
2013,11,26,00,56,2.80
2013,11,26,00,57,2.80
2013,11,26,00,58,2.80
2013,11,26,00,59,2.80
2013,11,26,01,00,2.80
2013,11,26,01,01,2.80
2013,11,26,01,02,2.70
2013,11,26,01,03,2.70
2013,11,26,01,04,2.70
2013,11,26,01,05,2.70
2013,11,26,01,06,2.70
2013,11,26,01,07,2.60
2013,11,26,01,08,2.60
2013,11,26,01,09,2.60
2013,11,26,01,10,2.60
2013,11,26,01,11,2.60
2013,11,26,01,12,2.60
2013,11,26,01,13,2.60
2013,11,26,01,14,2.60
2013,11,26,01,15,2.70
2013,11,26,01,16,2.70
2013,11,26,01,17,2.70
2013,11,26,01,18,2.70
2013,11,26,01,19,2.70
2013,11,26,01,20,2.70
2013,11,26,01,21,2.70
2013,11,26,01,22,2.70
2013,11,26,01,23,2.60
2013,11,26,01,24,2.60
2013,11,26,01,25,2.60
2013,11,26,01,26,2.50
2013,11,26,01,27,2.50
2013,11,26,01,28,2.50
2013,11,26,01,29,2.50
2013,11,26,01,30,2.50
2013,11,26,01,31,2.50
2013,11,26,01,32,2.60
2013,11,26,01,33,2.60
2013,11,26,01,34,2.60
2013,11,26,01,35,2.60
2013,11,26,01,36,2.60
2013,11,26,01,37,2.60
2013,11,26,01,38,2.50
2013,11,26,01,39,2.50
2013,11,26,01,40,2.50
2013,11,26,01,41,2.40
2013,11,26,01,42,2.40
2013,11,26,01,43,2.40
2013,11,26,01,44,2.50
2013,11,26,01,45,2.50
2013,11,26,01,46,2.50
2013,11,26,01,47,2.60
2013,11,26,01,48,2.60
2013,11,26,01,49,2.50
2013,11,26,01,50,2.50
2013,11,26,01,51,2.50
2013,11,26,01,52,2.50
2013,11,26,01,53,2.50
2013,11,26,01,54,2.50
2013,11,26,01,55,2.50
2013,11,26,01,56,2.60
2013,11,26,01,57,2.60
2013,11,26,01,58,2.60
2013,11,26,01,59,2.60
2013,11,26,02,00,2.60
2013,11,26,02,01,2.60
2013,11,26,02,02,2.50
2013,11,26,02,03,2.50
2013,11,26,02,04,2.50
2013,11,26,02,05,2.50
2013,11,26,02,06,2.50
2013,11,26,02,07,2.50
2013,11,26,02,08,2.50
2013,11,26,02,09,2.50
2013,11,26,02,10,2.40
2013,11,26,02,11,2.40
2013,11,26,02,12,2.40
2013,11,26,02,13,2.40
2013,11,26,02,14,2.40
2013,11,26,02,15,2.40
2013,11,26,02,16,2.40
2013,11,26,02,17,2.40
2013,11,26,02,18,2.40
2013,11,26,02,19,2.40
2013,11,26,02,20,2.40
2013,11,26,02,21,2.40
2013,11,26,02,22,2.40
2013,11,26,02,23,2.40
2013,11,26,02,24,2.30
2013,11,26,02,25,2.30
2013,11,26,02,26,2.30
2013,11,26,02,27,2.30
2013,11,26,02,28,2.30
2013,11,26,02,29,2.30
2013,11,26,02,30,2.30
2013,11,26,02,31,2.30
2013,11,26,02,32,2.40
2013,11,26,02,33,2.40
2013,11,26,02,34,2.40
2013,11,26,02,35,2.40
2013,11,26,02,36,2.30
2013,11,26,02,37,2.30
2013,11,26,02,38,2.30
2013,11,26,02,39,2.30
2013,11,26,02,40,2.20
2013,11,26,02,41,2.20
2013,11,26,02,42,2.20
2013,11,26,02,43,2.20
2013,11,26,02,44,2.10
2013,11,26,02,45,2.10
2013,11,26,02,46,2.10
2013,11,26,02,47,2.10
2013,11,26,02,48,2.10
2013,11,26,02,49,2.10
2013,11,26,02,50,2.10
2013,11,26,02,51,2.10
2013,11,26,02,52,2.10
2013,11,26,02,53,2.10
2013,11,26,02,54,2.10
2013,11,26,02,55,2.10
2013,11,26,02,56,2.20
2013,11,26,02,57,2.20
2013,11,26,02,58,2.20
2013,11,26,02,59,2.20
2013,11,26,03,00,2.20
2013,11,26,03,01,2.20
2013,11,26,03,02,2.20
2013,11,26,03,03,2.20
2013,11,26,03,04,2.20
2013,11,26,03,05,2.20
2013,11,26,03,06,2.20
2013,11,26,03,07,2.10
2013,11,26,03,08,2.10
2013,11,26,03,09,2.10
2013,11,26,03,10,2.10
2013,11,26,03,11,2.10
2013,11,26,03,12,2.10
2013,11,26,03,13,2.10
2013,11,26,03,14,2.10
2013,11,26,03,15,2.10
2013,11,26,03,16,2.10
2013,11,26,03,17,2.20
2013,11,26,03,18,2.20
2013,11,26,03,19,2.20
2013,11,26,03,20,2.10
2013,11,26,03,21,2.10
2013,11,26,03,22,2.10
2013,11,26,03,23,2.10
2013,11,26,03,24,2.10
2013,11,26,03,25,2.10
2013,11,26,03,26,2.20
2013,11,26,03,27,2.20
2013,11,26,03,28,2.20
2013,11,26,03,29,2.20
2013,11,26,03,30,2.20
2013,11,26,03,31,2.10
2013,11,26,03,32,2.10
2013,11,26,03,33,2.10
2013,11,26,03,34,2.10
2013,11,26,03,35,2.10
2013,11,26,03,36,2.10
2013,11,26,03,37,2.10
2013,11,26,03,38,2.10
2013,11,26,03,39,2.00
2013,11,26,03,40,2.00
2013,11,26,03,41,2.00
2013,11,26,03,42,2.00
2013,11,26,03,43,2.00
2013,11,26,03,44,2.00
2013,11,26,03,45,2.00
2013,11,26,03,46,2.00
2013,11,26,03,47,2.10
2013,11,26,03,48,2.00
2013,11,26,03,49,2.00
2013,11,26,03,50,2.00
2013,11,26,03,51,2.00
2013,11,26,03,52,2.00
2013,11,26,03,53,2.00
2013,11,26,03,54,2.00
2013,11,26,03,55,1.90
2013,11,26,03,56,1.90
2013,11,26,03,57,1.90
2013,11,26,03,58,1.90
2013,11,26,03,59,1.90
2013,11,26,04,00,1.90
2013,11,26,04,01,1.90
2013,11,26,04,02,1.90
2013,11,26,04,03,1.90
2013,11,26,04,04,2.00
2013,11,26,04,05,2.00
2013,11,26,04,06,1.90
2013,11,26,04,07,1.90
2013,11,26,04,08,1.90
2013,11,26,04,09,1.80
2013,11,26,04,10,1.80
2013,11,26,04,11,1.80
2013,11,26,04,12,1.80
2013,11,26,04,13,1.80
2013,11,26,04,14,1.80
2013,11,26,04,15,1.80
2013,11,26,04,16,1.80
2013,11,26,04,17,1.80
2013,11,26,04,18,1.80
2013,11,26,04,19,1.90
2013,11,26,04,20,1.90
2013,11,26,04,21,1.90
2013,11,26,04,22,2.00
2013,11,26,04,23,1.90
2013,11,26,04,24,1.90
2013,11,26,04,25,1.80
2013,11,26,04,26,1.80
2013,11,26,04,27,1.80
2013,11,26,04,28,1.80
2013,11,26,04,29,1.80
2013,11,26,04,30,1.80
2013,11,26,04,31,1.80
2013,11,26,04,32,1.80
2013,11,26,04,33,1.80
2013,11,26,04,34,1.80
2013,11,26,04,35,1.80
2013,11,26,04,36,1.80
2013,11,26,04,37,1.80
2013,11,26,04,38,1.80
2013,11,26,04,39,1.80
2013,11,26,04,40,1.80
2013,11,26,04,41,1.80
2013,11,26,04,42,1.80
2013,11,26,04,43,1.70
2013,11,26,04,44,1.70
2013,11,26,04,45,1.70
2013,11,26,04,46,1.70
2013,11,26,04,47,1.70
2013,11,26,04,48,1.70
2013,11,26,04,49,1.70
2013,11,26,04,50,1.60
2013,11,26,04,51,1.60
2013,11,26,04,52,1.60
2013,11,26,04,53,1.50
2013,11,26,04,54,1.50
2013,11,26,04,55,1.40
2013,11,26,04,56,1.40
2013,11,26,04,57,1.40
2013,11,26,04,58,1.40
2013,11,26,04,59,1.40
2013,11,26,05,00,1.50
2013,11,26,05,01,1.50
2013,11,26,05,02,1.40
2013,11,26,05,03,1.40
2013,11,26,05,04,1.50
2013,11,26,05,05,1.60
2013,11,26,05,06,1.60
2013,11,26,05,07,1.60
2013,11,26,05,08,1.70
2013,11,26,05,09,1.70
2013,11,26,05,10,1.70
2013,11,26,05,11,1.60
2013,11,26,05,12,1.60
2013,11,26,05,13,1.60
2013,11,26,05,14,1.70
2013,11,26,05,15,1.70
2013,11,26,05,16,1.80
2013,11,26,05,17,1.80
2013,11,26,05,18,1.80
2013,11,26,05,19,1.70
2013,11,26,05,20,1.70
2013,11,26,05,21,1.70
2013,11,26,05,22,1.70
2013,11,26,05,23,1.60
2013,11,26,05,24,1.60
2013,11,26,05,25,1.60
2013,11,26,05,26,1.60
2013,11,26,05,27,1.60
2013,11,26,05,28,1.70
2013,11,26,05,29,1.70
2013,11,26,05,30,1.70
2013,11,26,05,31,1.70
2013,11,26,05,32,1.70
2013,11,26,05,33,1.70
2013,11,26,05,34,1.70
2013,11,26,05,35,1.70
2013,11,26,05,36,1.70
2013,11,26,05,37,1.70
2013,11,26,05,38,1.70
2013,11,26,05,39,1.70
2013,11,26,05,40,1.60
2013,11,26,05,41,1.60
2013,11,26,05,42,1.60
2013,11,26,05,43,1.60
2013,11,26,05,44,1.60
2013,11,26,05,45,1.50
2013,11,26,05,46,1.50
2013,11,26,05,47,1.60
2013,11,26,05,48,1.60
2013,11,26,05,49,1.60
2013,11,26,05,50,1.60
2013,11,26,05,51,1.60
2013,11,26,05,52,1.60
2013,11,26,05,53,1.60
2013,11,26,05,54,1.60
2013,11,26,05,55,1.50
2013,11,26,05,56,1.50
2013,11,26,05,57,1.50
2013,11,26,05,58,1.40
2013,11,26,05,59,1.40
2013,11,26,06,00,1.40
2013,11,26,06,01,1.40
2013,11,26,06,02,1.40
2013,11,26,06,03,1.50
2013,11,26,06,04,1.50
2013,11,26,06,05,1.60
2013,11,26,06,06,1.60
2013,11,26,06,07,1.70
2013,11,26,06,08,1.70
2013,11,26,06,09,1.80
2013,11,26,06,10,1.80
2013,11,26,06,11,1.80
2013,11,26,06,12,1.80
2013,11,26,06,13,1.80
2013,11,26,06,14,1.80
2013,11,26,06,15,1.80
2013,11,26,06,16,1.70
2013,11,26,06,17,1.70
2013,11,26,06,18,1.70
2013,11,26,06,19,1.70
2013,11,26,06,20,1.70
2013,11,26,06,21,1.70
2013,11,26,06,22,1.70
2013,11,26,06,23,1.70
2013,11,26,06,24,1.70
2013,11,26,06,25,1.70
2013,11,26,06,26,1.70
2013,11,26,06,27,1.70
2013,11,26,06,28,1.70
2013,11,26,06,29,1.70
2013,11,26,06,30,1.70
2013,11,26,06,31,1.70
2013,11,26,06,32,1.70
2013,11,26,06,33,1.80
2013,11,26,06,34,1.80
2013,11,26,06,35,1.80
2013,11,26,06,36,1.80
2013,11,26,06,37,1.80
2013,11,26,06,38,1.80
2013,11,26,06,39,1.70
2013,11,26,06,40,1.70
2013,11,26,06,41,1.70
2013,11,26,06,42,1.70
2013,11,26,06,43,1.70
2013,11,26,06,44,1.70
2013,11,26,06,45,1.70
2013,11,26,06,46,1.80
2013,11,26,06,47,1.80
2013,11,26,06,48,1.90
2013,11,26,06,49,1.90
2013,11,26,06,50,2.00
2013,11,26,06,51,2.00
2013,11,26,06,52,2.10
2013,11,26,06,53,2.10
2013,11,26,06,54,2.10
2013,11,26,06,55,2.10
2013,11,26,06,56,2.00
2013,11,26,06,57,2.00
2013,11,26,06,58,1.90
2013,11,26,06,59,1.80
2013,11,26,07,00,1.80
2013,11,26,07,01,1.80
2013,11,26,07,02,1.70
2013,11,26,07,03,1.70
2013,11,26,07,04,1.70
2013,11,26,07,05,1.70
2013,11,26,07,06,1.70
2013,11,26,07,07,1.70
2013,11,26,07,08,1.70
2013,11,26,07,09,1.70
2013,11,26,07,10,1.70
2013,11,26,07,11,1.70
2013,11,26,07,12,1.70
2013,11,26,07,13,1.80
2013,11,26,07,14,1.80
2013,11,26,07,15,1.80
2013,11,26,07,16,1.80
2013,11,26,07,17,1.90
2013,11,26,07,18,1.90
2013,11,26,07,19,1.90
2013,11,26,07,20,1.90
2013,11,26,07,21,1.90
2013,11,26,07,22,1.90
2013,11,26,07,23,1.90
2013,11,26,07,24,1.90
2013,11,26,07,25,1.90
2013,11,26,07,26,1.90
2013,11,26,07,27,1.90
2013,11,26,07,28,1.90
2013,11,26,07,29,1.90
2013,11,26,07,30,1.90
2013,11,26,07,31,1.90
2013,11,26,07,32,1.90
2013,11,26,07,33,1.90
2013,11,26,07,34,1.90
2013,11,26,07,35,1.90
2013,11,26,07,36,1.90
2013,11,26,07,37,1.90
2013,11,26,07,38,1.90
2013,11,26,07,39,1.90
2013,11,26,07,40,1.90
2013,11,26,07,41,1.90
2013,11,26,07,42,2.00
2013,11,26,07,43,2.00
2013,11,26,07,44,2.00
2013,11,26,07,45,2.00
2013,11,26,07,46,2.00
2013,11,26,07,47,2.00
2013,11,26,07,48,1.90
2013,11,26,07,49,1.90
2013,11,26,07,50,1.90
2013,11,26,07,51,1.90
2013,11,26,07,52,1.90
2013,11,26,07,53,1.90
2013,11,26,07,54,1.90
2013,11,26,07,55,1.90
2013,11,26,07,56,1.90
2013,11,26,07,57,1.90
2013,11,26,07,58,1.90
2013,11,26,07,59,1.90
2013,11,26,08,00,1.90
2013,11,26,08,01,1.90
2013,11,26,08,02,1.90
2013,11,26,08,03,1.90
2013,11,26,08,04,1.90
2013,11,26,08,05,1.90
2013,11,26,08,06,1.90
2013,11,26,08,07,1.80
2013,11,26,08,08,1.80
2013,11,26,08,09,1.80
2013,11,26,08,10,1.80
2013,11,26,08,11,1.80
2013,11,26,08,12,1.80
2013,11,26,08,13,1.80
2013,11,26,08,14,1.80
2013,11,26,08,15,1.80
2013,11,26,08,16,1.80
2013,11,26,08,17,1.80
2013,11,26,08,18,1.80
2013,11,26,08,19,1.80
2013,11,26,08,20,1.80
2013,11,26,08,21,1.80
2013,11,26,08,22,1.80
2013,11,26,08,23,1.90
2013,11,26,08,24,1.90
2013,11,26,08,25,1.80
2013,11,26,08,26,1.80
2013,11,26,08,27,1.80
2013,11,26,08,28,1.80
2013,11,26,08,29,1.80
2013,11,26,08,30,1.80
2013,11,26,08,31,1.80
2013,11,26,08,32,1.80
2013,11,26,08,33,1.80
2013,11,26,08,34,1.80
2013,11,26,08,35,1.80
2013,11,26,08,36,1.80
2013,11,26,08,37,1.80
2013,11,26,08,38,1.80
2013,11,26,08,39,1.90
2013,11,26,08,40,1.90
2013,11,26,08,41,1.90
2013,11,26,08,42,2.00
2013,11,26,08,43,2.00
2013,11,26,08,44,2.10
2013,11,26,08,45,2.10
2013,11,26,08,46,2.10
2013,11,26,08,47,2.10
2013,11,26,08,48,2.10
2013,11,26,08,49,2.10
2013,11,26,08,50,2.10
2013,11,26,08,51,2.10
2013,11,26,08,52,2.20
2013,11,26,08,53,2.20
2013,11,26,08,54,2.20
2013,11,26,08,55,2.20
2013,11,26,08,56,2.30
2013,11,26,08,57,2.30
2013,11,26,08,58,2.30
2013,11,26,08,59,2.30
2013,11,26,09,00,2.30
2013,11,26,09,01,2.30
2013,11,26,09,02,2.40
2013,11,26,09,03,2.40
2013,11,26,09,04,2.40
2013,11,26,09,05,2.40
2013,11,26,09,06,2.40
2013,11,26,09,07,2.40
2013,11,26,09,08,2.40
2013,11,26,09,09,2.40
2013,11,26,09,10,2.40
2013,11,26,09,11,2.40
2013,11,26,09,12,2.40
2013,11,26,09,13,2.50
2013,11,26,09,14,2.50
2013,11,26,09,15,2.60
2013,11,26,09,16,2.60
2013,11,26,09,17,2.70
2013,11,26,09,18,2.70
2013,11,26,09,19,2.70
2013,11,26,09,20,2.70
2013,11,26,09,21,2.70
2013,11,26,09,22,2.80
2013,11,26,09,23,2.80
2013,11,26,09,24,2.80
2013,11,26,09,25,2.80
2013,11,26,09,26,2.80
2013,11,26,09,27,2.90
2013,11,26,09,28,2.90
2013,11,26,09,29,2.90
2013,11,26,09,30,2.90
2013,11,26,09,31,2.90
2013,11,26,09,32,2.90
2013,11,26,09,33,3.00
2013,11,26,09,34,3.00
2013,11,26,09,35,3.00
2013,11,26,09,36,3.10
2013,11,26,09,37,3.10
2013,11,26,09,38,3.10
2013,11,26,09,39,3.20
2013,11,26,09,40,3.20
2013,11,26,09,41,3.30
2013,11,26,09,42,3.30
2013,11,26,09,43,3.30
2013,11,26,09,44,3.30
2013,11,26,09,45,3.30
2013,11,26,09,46,3.40
2013,11,26,09,47,3.40
2013,11,26,09,48,3.40
2013,11,26,09,49,3.40
2013,11,26,09,50,3.40
2013,11,26,09,51,3.40
2013,11,26,09,52,3.40
2013,11,26,09,53,3.50
2013,11,26,09,54,3.50
2013,11,26,09,55,3.50
2013,11,26,09,56,3.60
2013,11,26,09,57,3.60
2013,11,26,09,58,3.60
2013,11,26,09,59,3.60
2013,11,26,10,00,3.70
2013,11,26,10,01,3.70
2013,11,26,10,02,3.70
2013,11,26,10,03,3.80
2013,11,26,10,04,3.80
2013,11,26,10,05,3.80
2013,11,26,10,06,3.80
2013,11,26,10,07,3.90
2013,11,26,10,08,3.90
2013,11,26,10,09,4.00
2013,11,26,10,10,4.00
2013,11,26,10,11,4.00
2013,11,26,10,12,4.10
2013,11,26,10,13,4.10
2013,11,26,10,14,4.10
2013,11,26,10,15,4.10
2013,11,26,10,16,4.10
2013,11,26,10,17,4.10
2013,11,26,10,18,4.20
2013,11,26,10,19,4.20
2013,11,26,10,20,4.30
2013,11,26,10,21,4.30
2013,11,26,10,22,4.30
2013,11,26,10,23,4.40
2013,11,26,10,24,4.40
2013,11,26,10,25,4.50
2013,11,26,10,26,4.50
2013,11,26,10,27,4.60
2013,11,26,10,28,4.60
2013,11,26,10,29,4.70
2013,11,26,10,30,4.70
2013,11,26,10,31,4.80
2013,11,26,10,32,4.80
2013,11,26,10,33,4.90
2013,11,26,10,34,5.00
2013,11,26,10,35,5.10
2013,11,26,10,36,5.10
2013,11,26,10,37,5.20
2013,11,26,10,38,5.20
2013,11,26,10,39,5.30
2013,11,26,10,40,5.30
2013,11,26,10,41,5.40
2013,11,26,10,42,5.40
2013,11,26,10,43,5.40
2013,11,26,10,44,5.40
2013,11,26,10,45,5.30
2013,11,26,10,46,5.30
2013,11,26,10,47,5.30
2013,11,26,10,48,5.30
2013,11,26,10,49,5.30
2013,11,26,10,50,5.30
2013,11,26,10,51,5.30
2013,11,26,10,52,5.30
2013,11,26,10,53,5.30
2013,11,26,10,54,5.30
2013,11,26,10,55,5.30
2013,11,26,10,56,5.40
2013,11,26,10,57,5.40
2013,11,26,10,58,5.50
2013,11,26,10,59,5.50
2013,11,26,11,00,5.50
2013,11,26,11,01,5.60
2013,11,26,11,02,5.60
2013,11,26,11,03,5.60
2013,11,26,11,04,5.70
2013,11,26,11,05,5.80
2013,11,26,11,06,5.80
2013,11,26,11,07,5.90
2013,11,26,11,08,5.90
2013,11,26,11,09,5.90
2013,11,26,11,10,5.90
2013,11,26,11,11,5.90
2013,11,26,11,12,5.90
2013,11,26,11,13,6.00
2013,11,26,11,14,6.00
2013,11,26,11,15,6.00
2013,11,26,11,16,6.10
2013,11,26,11,17,6.00
2013,11,26,11,18,6.00
2013,11,26,11,19,6.00
2013,11,26,11,20,6.00
2013,11,26,11,21,5.90
2013,11,26,11,22,5.90
2013,11,26,11,23,5.90
2013,11,26,11,24,5.90
2013,11,26,11,25,5.90
2013,11,26,11,26,5.90
2013,11,26,11,27,5.90
2013,11,26,11,28,5.90
2013,11,26,11,29,5.80
2013,11,26,11,30,5.80
2013,11,26,11,31,5.80
2013,11,26,11,32,5.80
2013,11,26,11,33,5.80
2013,11,26,11,34,5.80
2013,11,26,11,35,5.80
2013,11,26,11,36,5.80
2013,11,26,11,37,5.80
2013,11,26,11,38,5.80
2013,11,26,11,39,5.80
2013,11,26,11,40,5.80
2013,11,26,11,41,5.80
2013,11,26,11,42,5.80
2013,11,26,11,43,5.80
2013,11,26,11,44,5.80
2013,11,26,11,45,5.80
2013,11,26,11,46,5.90
2013,11,26,11,47,5.90
2013,11,26,11,48,5.90
2013,11,26,11,49,5.90
2013,11,26,11,50,6.00
2013,11,26,11,51,6.00
2013,11,26,11,52,6.00
2013,11,26,11,53,6.00
2013,11,26,11,54,6.00
2013,11,26,11,55,6.10
2013,11,26,11,56,6.20
2013,11,26,11,57,6.20
2013,11,26,11,58,6.30
2013,11,26,11,59,6.30
2013,11,26,12,00,6.30
2013,11,26,12,01,6.30
2013,11,26,12,02,6.30
2013,11,26,12,03,6.30
2013,11,26,12,04,6.30
2013,11,26,12,05,6.30
2013,11,26,12,06,6.20
2013,11,26,12,07,6.20
2013,11,26,12,08,6.20
2013,11,26,12,09,6.20
2013,11,26,12,10,6.20
2013,11,26,12,11,6.20
2013,11,26,12,12,6.20
2013,11,26,12,13,6.20
2013,11,26,12,14,6.30
2013,11,26,12,15,6.30
2013,11,26,12,16,6.30
2013,11,26,12,17,6.40
2013,11,26,12,18,6.40
2013,11,26,12,19,6.40
2013,11,26,12,20,6.50
2013,11,26,12,21,6.50
2013,11,26,12,22,6.60
2013,11,26,12,23,6.70
2013,11,26,12,24,6.70
2013,11,26,12,25,6.70
2013,11,26,12,26,6.70
2013,11,26,12,27,6.80
2013,11,26,12,28,6.80
2013,11,26,12,29,6.80
2013,11,26,12,30,6.80
2013,11,26,12,31,6.80
2013,11,26,12,32,6.80
2013,11,26,12,33,6.90
2013,11,26,12,34,6.90
2013,11,26,12,35,6.90
2013,11,26,12,36,6.90
2013,11,26,12,37,7.00
2013,11,26,12,38,7.00
2013,11,26,12,39,7.00
2013,11,26,12,40,7.00
2013,11,26,12,41,7.00
2013,11,26,12,42,7.00
2013,11,26,12,43,7.00
2013,11,26,12,44,7.00
2013,11,26,12,45,7.00
2013,11,26,12,46,7.10
2013,11,26,12,47,7.10
2013,11,26,12,48,7.00
2013,11,26,12,49,7.00
2013,11,26,12,50,7.00
2013,11,26,12,51,7.00
2013,11,26,12,52,7.00
2013,11,26,12,53,7.00
2013,11,26,12,54,6.90
2013,11,26,12,55,6.90
2013,11,26,12,56,6.90
2013,11,26,12,57,6.90
2013,11,26,12,58,6.90
2013,11,26,12,59,7.00
2013,11,26,13,00,7.00
2013,11,26,13,01,7.00
2013,11,26,13,02,7.10
2013,11,26,13,03,7.10
2013,11,26,13,04,7.10
2013,11,26,13,05,7.20
2013,11,26,13,06,7.20
2013,11,26,13,07,7.20
2013,11,26,13,08,7.20
2013,11,26,13,09,7.20
2013,11,26,13,10,7.20
2013,11,26,13,11,7.30
2013,11,26,13,12,7.30
2013,11,26,13,13,7.30
2013,11,26,13,14,7.40
2013,11,26,13,15,7.40
2013,11,26,13,16,7.40
2013,11,26,13,17,7.40
2013,11,26,13,18,7.40
2013,11,26,13,19,7.40
2013,11,26,13,20,7.50
2013,11,26,13,21,7.50
2013,11,26,13,22,7.60
2013,11,26,13,23,7.60
2013,11,26,13,24,7.60
2013,11,26,13,25,7.60
2013,11,26,13,26,7.60
2013,11,26,13,27,7.60
2013,11,26,13,28,7.60
2013,11,26,13,29,7.60
2013,11,26,13,30,7.60
2013,11,26,13,31,7.50
2013,11,26,13,32,7.40
2013,11,26,13,33,7.40
2013,11,26,13,34,7.30
2013,11,26,13,35,7.30
2013,11,26,13,36,7.20
2013,11,26,13,37,7.20
2013,11,26,13,38,7.20
2013,11,26,13,39,7.20
2013,11,26,13,40,7.20
2013,11,26,13,41,7.10
2013,11,26,13,42,7.10
2013,11,26,13,43,7.10
2013,11,26,13,44,7.10
2013,11,26,13,45,7.10
2013,11,26,13,46,7.10
2013,11,26,13,47,7.00
2013,11,26,13,48,7.00
2013,11,26,13,49,7.00
2013,11,26,13,50,6.90
2013,11,26,13,51,6.90
2013,11,26,13,52,6.90
2013,11,26,13,53,6.90
2013,11,26,13,54,6.90
2013,11,26,13,55,6.90
2013,11,26,13,56,6.90
2013,11,26,13,57,6.90
2013,11,26,13,58,6.90
2013,11,26,13,59,6.90
2013,11,26,14,00,6.90
2013,11,26,14,01,6.90
2013,11,26,14,02,6.90
2013,11,26,14,03,6.90
2013,11,26,14,04,6.90
2013,11,26,14,05,6.90
2013,11,26,14,06,6.90
2013,11,26,14,07,6.90
2013,11,26,14,08,6.90
2013,11,26,14,09,6.90
2013,11,26,14,10,7.00
2013,11,26,14,11,7.00
2013,11,26,14,12,7.00
2013,11,26,14,13,7.00
2013,11,26,14,14,7.00
2013,11,26,14,15,7.10
2013,11,26,14,16,7.10
2013,11,26,14,17,7.10
2013,11,26,14,18,7.10
2013,11,26,14,19,7.10
2013,11,26,14,20,7.10
2013,11,26,14,21,7.10
2013,11,26,14,22,7.20
2013,11,26,14,23,7.20
2013,11,26,14,24,7.20
2013,11,26,14,25,7.20
2013,11,26,14,26,7.20
2013,11,26,14,27,7.20
2013,11,26,14,28,7.30
2013,11,26,14,29,7.30
2013,11,26,14,30,7.30
2013,11,26,14,31,7.30
2013,11,26,14,32,7.30
2013,11,26,14,33,7.40
2013,11,26,14,34,7.40
2013,11,26,14,35,7.40
2013,11,26,14,36,7.40
2013,11,26,14,37,7.40
2013,11,26,14,38,7.50
2013,11,26,14,39,7.50
2013,11,26,14,40,7.50
2013,11,26,14,41,7.50
2013,11,26,14,42,7.50
2013,11,26,14,43,7.50
2013,11,26,14,44,7.60
2013,11,26,14,45,7.60
2013,11,26,14,46,7.60
2013,11,26,14,47,7.60
2013,11,26,14,48,7.60
2013,11,26,14,49,7.60
2013,11,26,14,50,7.60
2013,11,26,14,51,7.60
2013,11,26,14,52,7.60
2013,11,26,14,53,7.60
2013,11,26,14,54,7.60
2013,11,26,14,55,7.60
2013,11,26,14,56,7.60
2013,11,26,14,57,7.60
2013,11,26,14,58,7.60
2013,11,26,14,59,7.60
2013,11,26,15,00,7.60
2013,11,26,15,01,7.60
2013,11,26,15,02,7.60
2013,11,26,15,03,7.60
2013,11,26,15,04,7.60
2013,11,26,15,05,7.60
2013,11,26,15,06,7.50
2013,11,26,15,07,7.50
2013,11,26,15,08,7.50
2013,11,26,15,09,7.50
2013,11,26,15,10,7.50
2013,11,26,15,11,7.40
2013,11,26,15,12,7.40
2013,11,26,15,13,7.40
2013,11,26,15,14,7.40
2013,11,26,15,15,7.40
2013,11,26,15,16,7.40
2013,11,26,15,17,7.40
2013,11,26,15,18,7.40
2013,11,26,15,19,7.40
2013,11,26,15,20,7.40
2013,11,26,15,21,7.40
2013,11,26,15,22,7.40
2013,11,26,15,23,7.40
2013,11,26,15,24,7.30
2013,11,26,15,25,7.30
2013,11,26,15,26,7.30
2013,11,26,15,27,7.30
2013,11,26,15,28,7.30
2013,11,26,15,29,7.30
2013,11,26,15,30,7.30
2013,11,26,15,31,7.20
2013,11,26,15,32,7.20
2013,11,26,15,33,7.20
2013,11,26,15,34,7.20
2013,11,26,15,35,7.10
2013,11,26,15,36,7.10
2013,11,26,15,37,7.10
2013,11,26,15,38,7.10
2013,11,26,15,39,7.00
2013,11,26,15,40,7.00
2013,11,26,15,41,7.00
2013,11,26,15,42,7.00
2013,11,26,15,43,7.00
2013,11,26,15,44,7.00
2013,11,26,15,45,7.00
2013,11,26,15,46,7.00
2013,11,26,15,47,7.00
2013,11,26,15,48,7.00
2013,11,26,15,49,7.00
2013,11,26,15,50,7.00
2013,11,26,15,51,6.90
2013,11,26,15,52,6.90
2013,11,26,15,53,7.00
2013,11,26,15,54,7.00
2013,11,26,15,55,7.00
2013,11,26,15,56,7.00
2013,11,26,15,57,7.10
2013,11,26,15,58,7.10
2013,11,26,15,59,7.10
2013,11,26,16,00,7.10
2013,11,26,16,01,7.00
2013,11,26,16,02,7.00
2013,11,26,16,03,7.00
2013,11,26,16,04,7.00
2013,11,26,16,05,6.90
2013,11,26,16,06,6.90
2013,11,26,16,07,6.90
2013,11,26,16,08,6.90
2013,11,26,16,09,6.90
2013,11,26,16,10,6.80
2013,11,26,16,11,6.80
2013,11,26,16,12,6.80
2013,11,26,16,13,6.80
2013,11,26,16,14,6.80
2013,11,26,16,15,6.80
2013,11,26,16,16,6.80
2013,11,26,16,17,6.80
2013,11,26,16,18,6.80
2013,11,26,16,19,6.80
2013,11,26,16,20,6.80
2013,11,26,16,21,6.80
2013,11,26,16,22,6.80
2013,11,26,16,23,6.80
2013,11,26,16,24,6.80
2013,11,26,16,25,6.70
2013,11,26,16,26,6.70
2013,11,26,16,27,6.70
2013,11,26,16,28,6.70
2013,11,26,16,29,6.70
2013,11,26,16,30,6.70
2013,11,26,16,31,6.60
2013,11,26,16,32,6.60
2013,11,26,16,33,6.60
2013,11,26,16,34,6.50
2013,11,26,16,35,6.50
2013,11,26,16,36,6.50
2013,11,26,16,37,6.40
2013,11,26,16,38,6.40
2013,11,26,16,39,6.40
2013,11,26,16,40,6.40
2013,11,26,16,41,6.40
2013,11,26,16,42,6.40
2013,11,26,16,43,6.40
2013,11,26,16,44,6.30
2013,11,26,16,45,6.30
2013,11,26,16,46,6.30
2013,11,26,16,47,6.30
2013,11,26,16,48,6.30
2013,11,26,16,49,6.30
2013,11,26,16,50,6.30
2013,11,26,16,51,6.30
2013,11,26,16,52,6.20
2013,11,26,16,53,6.20
2013,11,26,16,54,6.20
2013,11,26,16,55,6.20
2013,11,26,16,56,6.20
2013,11,26,16,57,6.20
2013,11,26,16,58,6.20
2013,11,26,16,59,6.20
2013,11,26,17,00,6.20
2013,11,26,17,01,6.20
2013,11,26,17,02,6.20
2013,11,26,17,03,6.20
2013,11,26,17,04,6.10
2013,11,26,17,05,6.10
2013,11,26,17,06,6.10
2013,11,26,17,07,6.10
2013,11,26,17,08,6.10
2013,11,26,17,09,6.10
2013,11,26,17,10,6.10
2013,11,26,17,11,6.10
2013,11,26,17,12,6.10
2013,11,26,17,13,6.10
2013,11,26,17,14,6.10
2013,11,26,17,15,6.00
2013,11,26,17,16,6.00
2013,11,26,17,17,6.00
2013,11,26,17,18,6.00
2013,11,26,17,19,6.00
2013,11,26,17,20,6.00
2013,11,26,17,21,6.00
2013,11,26,17,22,6.00
2013,11,26,17,23,6.00
2013,11,26,17,24,5.90
2013,11,26,17,25,5.90
2013,11,26,17,26,5.90
2013,11,26,17,27,5.90
2013,11,26,17,28,5.90
2013,11,26,17,29,5.90
2013,11,26,17,30,5.90
2013,11,26,17,31,5.90
2013,11,26,17,32,5.80
2013,11,26,17,33,5.80
2013,11,26,17,34,5.80
2013,11,26,17,35,5.80
2013,11,26,17,36,5.80
2013,11,26,17,37,5.80
2013,11,26,17,38,5.80
2013,11,26,17,39,5.70
2013,11,26,17,40,5.70
2013,11,26,17,41,5.70
2013,11,26,17,42,5.70
2013,11,26,17,43,5.70
2013,11,26,17,44,5.70
2013,11,26,17,45,5.70
2013,11,26,17,46,5.60
2013,11,26,17,47,5.60
2013,11,26,17,48,5.60
2013,11,26,17,49,5.60
2013,11,26,17,50,5.60
2013,11,26,17,51,5.50
2013,11,26,17,52,5.50
2013,11,26,17,53,5.50
2013,11,26,17,54,5.40
2013,11,26,17,55,5.40
2013,11,26,17,56,5.40
2013,11,26,17,57,5.30
2013,11,26,17,58,5.30
2013,11,26,17,59,5.30
2013,11,26,18,00,5.20
2013,11,26,18,01,5.20
2013,11,26,18,02,5.20
2013,11,26,18,03,5.20
2013,11,26,18,04,5.20
2013,11,26,18,05,5.10
2013,11,26,18,06,5.10